Starlink 3762

operational
NORAD ID: 52374 Int'l Des: 2022-045 Owner: SPXS Country: US Constellation: starlink
LEOCIRCULAR

关于 Starlink 3762

正在加载描述...

实时位置

正在加载3D地球...

即将过境

高度历史

Altitude vs Time

uPlot chart will show altitude changes over time

两行轨道根数

1 52374U 22045AV 25260.40214472 -.00000908 00000-0 -39000-4 0 9998
2 52374 53.2160 247.0400 0001316 84.6970 275.4172 15.08831039189769
Epoch: Sep 17, 2025 • Age: 33 hours

当前状态

高度 556.1 km
速度 7.58 km/s
星下点 -45.64°S, 165.32°W
发射日期 Apr 29, 2022
运行时间 3.3 years
类型 internet

技术详情

分类 Payload
质量 297.00 kg
干质量 275.00 kg
总质量 297.00 kg
长度 0.20 m
直径 2.80 m
跨度 9.00 m
形状 Box + pan
制造商 SPXS
平台类型 Starlink
阶段状态 In Orbit
所有者/国家 SPXS/US

大型星座

Loading constellations...